When you browse on this site, cookies collect data to enhance your experience and personalize the content and advertising you see.
Visit our Privacy Policy to learn more. By continuing to use the site, you agree to this use of cookies and data.
  • In Austria
  • List of Countries
  • For 7 days
  • Water Temperature
  • Weather Map
  • News
  • Weather Widgets
  • user-avatar
    Login

    Hourly Weather Tulancingo

    Today, 19 September, Thursday

    Time Temperature Precipitation Wind Pressure Humidity
    00:00 +14°C° 0.1 mm 1 mps 586 mmHg 92%
    01:00 +14°C° 0.1 mm 1 mps 586 mmHg 92%
    02:00 +14°C° 0.1 mm 1 mps 586 mmHg 92%
    03:00 +13°C° 0 mm 1 mps 585 mmHg 92%
    04:00 +13°C° 0 mm 1 mps 585 mmHg 91%
    05:00 +13°C° 0 mm 1 mps 585 mmHg 91%
    06:00 +15°C° 0 mm 1 mps 586 mmHg 84%
    07:00 +18°C° 0 mm 1 mps 588 mmHg 77%
    08:00 +19°C° 0 mm 0 mps 589 mmHg 70%
    09:00 +22°C° 0.2 mm 1 mps 589 mmHg 67%
    10:00 +23°C° 0.2 mm 1 mps 589 mmHg 63%
    11:00 +24°C° 0.2 mm 2 mps 589 mmHg 60%
    12:00 +23°C° 0.5 mm 2 mps 589 mmHg 64%
    13:00 +22°C° 0.5 mm 3 mps 588 mmHg 67%
    14:00 +22°C° 0.5 mm 3 mps 587 mmHg 71%
    15:00 +20°C° 0.3 mm 3 mps 587 mmHg 76%
    16:00 +19°C° 0.3 mm 2 mps 586 mmHg 81%
    17:00 +18°C° 0.3 mm 2 mps 586 mmHg 86%
    18:00 +17°C° 0 mm 2 mps 586 mmHg 90%
    19:00 +16°C° 0 mm 1 mps 586 mmHg 93%
    20:00 +15°C° 0 mm 1 mps 586 mmHg 97%
    21:00 +14°C° 0 mm 1 mps 586 mmHg 96%
    22:00 +14°C° 0 mm 1 mps 586 mmHg 95%
    23:00 +14°C° 0 mm 1 mps 585 mmHg 94%

    Tomorrow, 20 September, Friday

    Time Temperature Precipitation Wind Pressure Humidity
    00:00 +14°C° 0 mm 1 mps 585 mmHg 93%
    01:00 +13°C° 0 mm 1 mps 585 mmHg 93%
    02:00 +13°C° 0 mm 1 mps 585 mmHg 92%
    03:00 +13°C° 0 mm 1 mps 585 mmHg 92%
    04:00 +13°C° 0 mm 1 mps 585 mmHg 92%
    05:00 +12°C° 0 mm 0 mps 585 mmHg 92%
    06:00 +15°C° 0 mm 1 mps 586 mmHg 86%
    07:00 +18°C° 0 mm 1 mps 587 mmHg 80%
    08:00 +20°C° 0 mm 1 mps 589 mmHg 73%
    09:00 +20°C° 0 mm 2 mps 589 mmHg 66%
    10:00 +23°C° 0 mm 2 mps 589 mmHg 58%
    11:00 +24°C° 0 mm 3 mps 589 mmHg 50%
    12:00 +24°C° 0 mm 3 mps 589 mmHg 54%
    13:00 +22°C° 0 mm 4 mps 588 mmHg 58%
    14:00 +22°C° 0 mm 4 mps 588 mmHg 63%
    15:00 +20°C° 0.1 mm 4 mps 587 mmHg 70%
    16:00 +19°C° 0.1 mm 3 mps 587 mmHg 78%
    17:00 +17°C° 0.1 mm 3 mps 586 mmHg 86%
    18:00 +16°C° 0 mm 2 mps 586 mmHg 89%
    19:00 +16°C° 0 mm 2 mps 586 mmHg 92%
    20:00 +15°C° 0 mm 1 mps 587 mmHg 95%
    21:00 +14°C° 0 mm 1 mps 587 mmHg 95%
    22:00 +14°C° 0 mm 1 mps 586 mmHg 95%
    23:00 +13°C° 0 mm 1 mps 586 mmHg 94%

    Day after tomorrow, 21 September, Saturday

    Time Temperature Precipitation Wind Pressure Humidity
    00:00 +13°C° 0 mm 1 mps 586 mmHg 94%
    01:00 +12°C° 0 mm 1 mps 586 mmHg 94%
    02:00 +12°C° 0 mm 1 mps 585 mmHg 94%
    03:00 +12°C° 0 mm 1 mps 585 mmHg 93%
    04:00 +11°C° 0 mm 1 mps 585 mmHg 92%
    05:00 +10°C° 0 mm 0 mps 585 mmHg 91%
    06:00 +13°C° 0 mm 1 mps 587 mmHg 81%
    07:00 +16°C° 0 mm 1 mps 588 mmHg 71%
    08:00 +19°C° 0 mm 1 mps 589 mmHg 60%
    09:00 +20°C° 0 mm 2 mps 590 mmHg 56%
    10:00 +21°C° 0 mm 2 mps 590 mmHg 52%
    11:00 +22°C° 0 mm 3 mps 590 mmHg 48%
    12:00 +22°C° 0 mm 3 mps 589 mmHg 54%
    13:00 +22°C° 0 mm 4 mps 589 mmHg 59%
    14:00 +21°C° 0 mm 4 mps 588 mmHg 65%
    15:00 +20°C° 0.2 mm 3 mps 587 mmHg 73%
    16:00 +18°C° 0.2 mm 3 mps 587 mmHg 81%
    17:00 +17°C° 0.2 mm 2 mps 586 mmHg 88%
    18:00 +16°C° 0 mm 2 mps 586 mmHg 91%
    19:00 +15°C° 0 mm 2 mps 587 mmHg 94%
    20:00 +14°C° 0 mm 1 mps 587 mmHg 97%
    21:00 +14°C° 0 mm 1 mps 587 mmHg 96%
    22:00 +14°C° 0 mm 1 mps 587 mmHg 95%
    23:00 +14°C° 0 mm 1 mps 587 mmHg 94%

    22 September, Sunday

    Time Temperature Precipitation Wind Pressure Humidity
    00:00 +14°C° 0 mm 1 mps 587 mmHg 94%
    01:00 +13°C° 0 mm 0 mps 586 mmHg 94%
    02:00 +12°C° 0 mm 0 mps 586 mmHg 94%
    03:00 +12°C° 0 mm 0 mps 586 mmHg 94%
    04:00 +11°C° 0 mm 0 mps 586 mmHg 95%
    05:00 +11°C° 0 mm 0 mps 585 mmHg 95%
    06:00 +13°C° 0 mm 0 mps 587 mmHg 86%
    07:00 +15°C° 0 mm 0 mps 588 mmHg 77%
    08:00 +20°C° 0 mm 1 mps 589 mmHg 68%
    09:00 +21°C° 0 mm 1 mps 590 mmHg 61%
    10:00 +21°C° 0 mm 2 mps 590 mmHg 55%
    11:00 +24°C° 0 mm 3 mps 590 mmHg 48%
    12:00 +24°C° 0 mm 3 mps 589 mmHg 51%
    13:00 +23°C° 0 mm 4 mps 589 mmHg 55%
    14:00 +22°C° 0 mm 4 mps 588 mmHg 58%
    15:00 +21°C° 0 mm 4 mps 587 mmHg 67%
    16:00 +19°C° 0 mm 3 mps 587 mmHg 76%
    17:00 +17°C° 0 mm 2 mps 586 mmHg 85%
    18:00 +16°C° 0 mm 2 mps 586 mmHg 88%
    19:00 +15°C° 0 mm 1 mps 586 mmHg 92%
    20:00 +14°C° 0 mm 1 mps 587 mmHg 95%
    21:00 +14°C° 0 mm 1 mps 586 mmHg 95%
    22:00 +13°C° 0 mm 1 mps 586 mmHg 94%
    23:00 +13°C° 0 mm 1 mps 586 mmHg 93%

    23 September, Monday

    Time Temperature Precipitation Wind Pressure Humidity
    00:00 +12°C° 0 mm 1 mps 586 mmHg 91%
    01:00 +12°C° 0 mm 1 mps 585 mmHg 90%
    02:00 +12°C° 0 mm 1 mps 585 mmHg 88%
    03:00 +10°C° 0 mm 0 mps 585 mmHg 85%
    04:00 +10°C° 0 mm 0 mps 585 mmHg 83%
    05:00 +10°C° 0 mm 0 mps 585 mmHg 80%
    06:00 +13°C° 0 mm 0 mps 587 mmHg 73%
    07:00 +15°C° 0 mm 0 mps 588 mmHg 65%
    08:00 +18°C° 0 mm 0 mps 590 mmHg 57%
    09:00 +21°C° 0 mm 1 mps 590 mmHg 54%
    10:00 +23°C° 0 mm 1 mps 590 mmHg 51%
    11:00 +24°C° 0 mm 2 mps 590 mmHg 48%
    12:00 +22°C° 0.1 mm 3 mps 589 mmHg 55%
    13:00 +22°C° 0.1 mm 3 mps 588 mmHg 61%
    14:00 +21°C° 0.1 mm 4 mps 588 mmHg 68%
    15:00 +20°C° 0.3 mm 3 mps 587 mmHg 75%
    16:00 +18°C° 0.3 mm 3 mps 587 mmHg 82%
    17:00 +17°C° 0.3 mm 2 mps 586 mmHg 89%
    18:00 +16°C° 0.1 mm 2 mps 586 mmHg 91%
    19:00 +15°C° 0.1 mm 1 mps 586 mmHg 92%
    20:00 +13°C° 0.1 mm 1 mps 586 mmHg 94%
    21:00 +13°C° 0 mm 1 mps 586 mmHg 91%
    22:00 +13°C° 0 mm 1 mps 586 mmHg 88%
    23:00 +12°C° 0 mm 1 mps 586 mmHg 85%

    24 September, Tuesday

    Time Temperature Precipitation Wind Pressure Humidity
    00:00 +12°C° 0 mm 1 mps 585 mmHg 85%
    01:00 +12°C° 0 mm 1 mps 585 mmHg 85%
    02:00 +12°C° 0 mm 1 mps 585 mmHg 85%
    03:00 +12°C° 0 mm 1 mps 585 mmHg 86%
    04:00 +12°C° 0 mm 1 mps 585 mmHg 87%
    05:00 +12°C° 0 mm 1 mps 585 mmHg 88%
    06:00 +15°C° 0 mm 1 mps 587 mmHg 81%
    07:00 +18°C° 0 mm 1 mps 588 mmHg 75%
    08:00 +21°C° 0 mm 1 mps 589 mmHg 68%
    09:00 +22°C° 0.4 mm 1 mps 589 mmHg 66%
    10:00 +23°C° 0.4 mm 1 mps 589 mmHg 64%
    11:00 +23°C° 0.4 mm 1 mps 589 mmHg 62%
    12:00 +23°C° 1.2 mm 2 mps 588 mmHg 68%
    13:00 +21°C° 1.2 mm 2 mps 587 mmHg 73%
    14:00 +20°C° 1.2 mm 2 mps 586 mmHg 79%
    15:00 +19°C° 0.8 mm 2 mps 586 mmHg 83%
    16:00 +18°C° 0.8 mm 2 mps 586 mmHg 88%
    17:00 +17°C° 0.8 mm 2 mps 586 mmHg 92%
    18:00 +18°C° 0.5 mm 1 mps 586 mmHg 93%
    19:00 +16°C° 0.5 mm 1 mps 587 mmHg 94%
    20:00 +16°C° 0.5 mm 1 mps 587 mmHg 95%
    21:00 +15°C° 0.2 mm 1 mps 587 mmHg 94%
    22:00 +15°C° 0.2 mm 1 mps 586 mmHg 92%
    23:00 +15°C° 0.2 mm 1 mps 586 mmHg 91%
    Show more